QPF
0.01 0.02 0.02 0.01 0.01 0.02 0.02 0.02 0.02 0.02 0.02 0.01 0.01 0.01 0.02 0.02 0.03 0.03 0.03 0.05 0.05 0.05 0.04 0.02 0.03 0.03 0.04 0.05 0.06 0.07 0.08 0.08 0.08 0.08 0.08 0.09 0.12 0.15
0.01 0.01 0.01 0.01 0.01 0.02 0.02 0.01 0.02 0.02 0.02 0.01 0.01 0.01 0.02 0.02 0.03 0.02 0.03 0.03 0.03 0.03 0.03 0.03 0.03 0.03 0.02 0.03 0.03 0.03 0.04 0.05 0.06 0.06 0.06 0.06 0.07 0.09
0.01 0.01 0.01 0.01 0.01 0.01 0.01 0.01 0.01 0.02 0.02 0.02 0.01 0.01 0.02 0.02 0.02 0.02 0.02 0.02 0.02 0.02 0.02 0.02 0.03 0.03 0.02 0.01 0.02 0.02 0.02 0.03 0.04 0.05 0.06 0.07 0.07 0.07
0.02 0.02 0.02 0.01 0.01 0.01 0.01 0.02 0.02 0.02 0.03 0.03 0.02 0.01 0.01 0.02 0.02 0.03 0.03 0.04 0.03 0.02 0.01 0.01 0.02 0.03 0.03 0.02 0.02 0.02 0.02 0.02 0.02 0.03 0.05 0.08 0.09 0.09
0.01 0.01 0.01 0.00 0.00 0.01 0.01 0.01 0.02 0.02 0.02 0.03 0.03 0.02 0.02 0.02 0.01 0.01 0.03 0.03 0.03 0.02 0.01 0.01 0.01 0.01 0.02 0.03 0.03 0.03 0.02 0.02 0.02 0.02 0.03 0.04 0.05 0.06
0.01 0.01 0.01 0.00 0.02 0.02 0.02 0.01 0.01 0.01 0.02 0.02 0.02 0.02 0.02 0.02 0.01 0.01 0.02 0.02 0.03 0.03 0.02 0.01 0.02 0.02 0.02 0.02 0.03 0.03 0.03 0.03 0.02 0.02 0.02 0.03 0.04 0.04
0.01 0.01 0.01 0.01 0.01 0.01 0.01 0.01 0.01 0.01 0.01 0.01 0.02 0.01 0.01 0.01 0.01 0.01 0.01 0.02 0.02 0.02 0.02 0.02 0.02 0.03 0.03 0.02 0.02 0.02 0.03 0.02 0.02 0.02 0.02 0.02 0.04 0.05
0.00 0.00 0.01 0.01 0.00 0.00 0.00 0.00 0.00 0.00 0.01 0.01 0.01 0.01 0.01 0.01 0.01 0.01 0.01 0.02 0.01 0.01 0.01 0.02 0.02 0.02 0.03 0.02 0.02 0.02 0.02 0.02 0.02 0.02 0.02 0.01 0.01 0.02
0.00 0.00 0.00 0.00 0.00 0.00 0.00 0.00 0.00 0.01 0.01 0.02 0.01 0.01 0.00 0.00 0.01 0.01 0.01 0.01 0.01 0.02 0.01 0.01 0.01 0.01 0.01 0.01 0.01 0.01 0.01 0.01 0.02 0.02 0.02 0.01 0.01 0.01
0.00 0.00 0.00 0.00 0.00 0.00 0.00 0.00 0.00 0.01 0.01 0.01 0.00 0.00 0.00 0.00 0.01 0.01 0.01 0.01 0.01 0.01 0.01 0.01 0.01 0.01 0.00 0.00 0.01 0.00 0.01 0.01 0.01 0.01 0.01 0.01 0.01 0.01
0.00 0.00 0.00 0.00 0.00 0.00 0.00 0.00 0.00 0.00 0.00 0.01 0.00 0.00 0.00 0.00 0.01 0.01 0.01 0.01 0.01 0.01 0.02 0.02 0.01 0.01 0.01 0.01 0.01 0.01 0.01 0.01 0.01 0.00 0.01 0.01 0.01 0.01
0.00 0.00 0.00 0.00 0.00 0.00 0.00 0.00 0.00 0.00 0.00 0.01 0.00 0.00 0.00 0.00 0.00 0.00 0.01 0.01 0.01 0.01 0.02 0.02 0.02 0.02 0.02 0.02 0.01 0.01 0.01 0.01 0.01 0.02 0.02 0.02 0.01 0.01
0.00 0.00 0.00 0.00 0.00 0.00 0.00 0.00 0.00 0.00 0.00 0.00 0.00 0.00 0.00 0.00 0.00 0.00 0.00 0.00 0.00 0.00 0.01 0.01 0.01 0.02 0.02 0.02 0.01 0.01 0.00 0.00 0.01 0.01 0.01 0.01 0.01 0.02
0.00 0.00 0.00 0.00 0.00 0.00 0.00 0.00 0.00 0.00 0.00 0.00 0.00 0.00 0.00 0.00 0.00 0.00 0.00 0.00 0.00 0.00 0.00 0.01 0.01 0.01 0.01 0.01 0.01 0.01 0.01 0.00 0.01 0.01 0.01 0.01 0.02 0.02
0.00 0.00 0.00 0.00 0.00 0.00 0.00 0.00 0.00 0.00 0.00 0.00 0.00 0.00 0.00 0.00 0.00 0.00 0.00 0.00 0.00 0.00 0.00 0.00 0.00 0.00 0.00 0.00 0.00 0.01 0.01 0.01 0.01 0.01 0.01 0.01 0.01 0.01
0.00 0.00 0.00 0.00 0.00 0.00 0.00 0.00 0.00 0.00 0.00 0.00 0.00 0.00 0.00 0.00 0.00 0.00 0.00 0.00 0.00 0.00 0.00 0.00 0.00 0.00 0.00 0.00 0.00 0.00 0.00 0.00 0.00 0.00 0.00 0.00 0.00 0.00
0.00 0.00 0.00 0.00 0.00 0.00 0.00 0.00 0.00 0.00 0.00 0.00 0.00 0.00 0.00 0.00 0.00 0.00 0.00 0.00 0.00 0.00 0.00 0.00 0.00 0.00 0.00 0.01 0.00 0.00 0.00 0.00 0.00 0.00 0.00 0.00 0.00 0.00
0.00 0.00 0.00 0.00 0.00 0.00 0.00 0.00 0.00 0.00 0.00 0.00 0.00 0.00 0.00 0.00 0.00 0.00 0.00 0.00 0.00 0.00 0.00 0.00 0.00 0.00 0.00 0.00 0.00 0.00 0.00 0.00 0.00 0.00 0.00 0.00 0.00 0.00
0.00 0.00 0.00 0.00 0.00 0.00 0.00 0.00 0.00 0.00 0.00 0.00 0.00 0.00 0.00 0.00 0.00 0.00 0.00 0.00 0.00 0.00 0.00 0.00 0.00 0.00 0.00 0.00 0.00 0.00 0.00 0.00 0.00 0.00 0.00 0.00 0.00 0.00
0.00 0.00 0.00 0.00 0.00 0.00 0.00 0.00 0.00 0.00 0.00 0.00 0.00 0.00 0.00 0.00 0.00 0.00 0.00 0.00 0.00 0.00 0.00 0.00 0.00 0.00 0.00 0.00 0.00 0.00 0.00 0.00 0.00 0.00 0.00 0.00 0.00 0.00
0.00 0.00 0.00 0.00 0.00 0.00 0.00 0.00 0.00 0.00 0.00 0.00 0.00 0.00 0.00 0.00 0.00 0.00 0.00 0.00 0.00 0.00 0.00 0.00 0.00 0.00 0.00 0.00 0.00 0.00 0.00 0.00 0.00 0.00 0.00 0.00 0.00 0.00
0.00 0.00 0.00 0.00 0.00 0.00 0.00 0.00 0.00 0.00 0.00 0.00 0.00 0.00 0.00 0.00 0.00 0.00 0.00 0.00 0.00 0.00 0.00 0.00 0.00 0.00 0.00 0.00 0.00 0.00 0.00 0.00 0.00 0.00 0.00 0.00 0.00 0.00
0.01 0.00 0.00 0.00 0.00 0.00 0.00 0.00 0.00 0.00 0.00 0.00 0.00 0.00 0.00 0.00 0.00 0.00 0.00 0.00 0.00 0.00 0.00 0.00 0.00 0.00 0.00 0.00 0.00 0.00 0.00 0.00 0.00 0.00 0.00 0.00 0.00 0.00
MSLP
1015.88 1015.95 1016.05 1016.16 1016.25 1016.32 1016.36 1016.36 1016.33 1016.28 1016.21 1016.14 1016.05 1015.94 1015.81 1015.65 1015.46 1015.26 1015.05 1014.85 1014.68 1014.56 1014.48 1014.46 1014.46 1014.49 1014.52 1014.53 1014.53 1014.51 1014.49 1014.47 1014.49 1014.54 1014.64 1014.79 1014.98 1015.19
1016.03 1016.09 1016.16 1016.22 1016.28 1016.32 1016.35 1016.37 1016.38 1016.40 1016.40 1016.40 1016.37 1016.31 1016.21 1016.05 1015.85 1015.62 1015.37 1015.12 1014.91 1014.75 1014.64 1014.58 1014.57 1014.57 1014.58 1014.57 1014.54 1014.50 1014.44 1014.39 1014.36 1014.36 1014.41 1014.51 1014.64 1014.80
1016.07 1016.12 1016.16 1016.19 1016.21 1016.23 1016.26 1016.30 1016.35 1016.42 1016.49 1016.56 1016.60 1016.60 1016.54 1016.41 1016.21 1015.97 1015.70 1015.42 1015.18 1014.97 1014.83 1014.73 1014.68 1014.65 1014.63 1014.59 1014.54 1014.47 1014.38 1014.30 1014.24 1014.21 1014.22 1014.27 1014.35 1014.45
1016.00 1016.05 1016.08 1016.09 1016.09 1016.10 1016.13 1016.18 1016.27 1016.39 1016.53 1016.66 1016.76 1016.82 1016.80 1016.70 1016.53 1016.29 1016.01 1015.72 1015.44 1015.20 1015.01 1014.87 1014.77 1014.70 1014.63 1014.56 1014.48 1014.38 1014.27 1014.17 1014.08 1014.02 1014.00 1014.02 1014.06 1014.11
1015.85 1015.90 1015.93 1015.94 1015.94 1015.95 1015.99 1016.07 1016.18 1016.34 1016.52 1016.69 1016.85 1016.95 1016.97 1016.91 1016.76 1016.54 1016.27 1015.97 1015.67 1015.40 1015.17 1014.98 1014.82 1014.69 1014.57 1014.45 1014.33 1014.20 1014.07 1013.95 1013.85 1013.78 1013.73 1013.72 1013.73 1013.75
1015.61 1015.68 1015.73 1015.75 1015.76 1015.79 1015.85 1015.94 1016.08 1016.25 1016.46 1016.66 1016.84 1016.97 1017.02 1016.99 1016.87 1016.68 1016.42 1016.13 1015.83 1015.53 1015.26 1015.02 1014.81 1014.62 1014.44 1014.27 1014.10 1013.93 1013.77 1013.64 1013.52 1013.44 1013.38 1013.35 1013.33 1013.32
1015.29 1015.38 1015.44 1015.49 1015.53 1015.59 1015.67 1015.78 1015.93 1016.11 1016.32 1016.53 1016.72 1016.86 1016.93 1016.92 1016.84 1016.67 1016.45 1016.18 1015.88 1015.58 1015.29 1015.01 1014.74 1014.49 1014.25 1014.03 1013.81 1013.60 1013.41 1013.25 1013.12 1013.02 1012.95 1012.90 1012.86 1012.83
1014.86 1014.96 1015.06 1015.14 1015.22 1015.31 1015.42 1015.55 1015.71 1015.89 1016.09 1016.28 1016.46 1016.60 1016.68 1016.70 1016.64 1016.52 1016.33 1016.10 1015.83 1015.54 1015.24 1014.94 1014.64 1014.35 1014.06 1013.77 1013.51 1013.26 1013.03 1012.84 1012.68 1012.56 1012.46 1012.39 1012.33 1012.27
1014.30 1014.43 1014.55 1014.67 1014.79 1014.92 1015.06 1015.21 1015.37 1015.55 1015.73 1015.91 1016.07 1016.20 1016.29 1016.33 1016.31 1016.24 1016.10 1015.92 1015.70 1015.44 1015.16 1014.86 1014.54 1014.22 1013.90 1013.57 1013.27 1012.98 1012.71 1012.48 1012.28 1012.12 1011.99 1011.87 1011.78 1011.68
1013.62 1013.76 1013.91 1014.07 1014.24 1014.41 1014.58 1014.75 1014.91 1015.08 1015.25 1015.41 1015.56 1015.69 1015.79 1015.86 1015.88 1015.86 1015.79 1015.68 1015.51 1015.31 1015.07 1014.79 1014.49 1014.16 1013.82 1013.48 1013.14 1012.81 1012.51 1012.24 1011.99 1011.78 1011.59 1011.42 1011.27 1011.13
1012.82 1012.98 1013.16 1013.36 1013.57 1013.78 1013.98 1014.17 1014.35 1014.52 1014.68 1014.83 1014.98 1015.11 1015.24 1015.34 1015.41 1015.46 1015.46 1015.42 1015.33 1015.19 1015.00 1014.77 1014.49 1014.19 1013.86 1013.51 1013.16 1012.81 1012.48 1012.16 1011.87 1011.59 1011.34 1011.10 1010.89 1010.68
1011.95 1012.13 1012.35 1012.58 1012.83 1013.07 1013.31 1013.52 1013.71 1013.89 1014.06 1014.22 1014.38 1014.53 1014.69 1014.83 1014.96 1015.07 1015.15 1015.18 1015.17 1015.10 1014.97 1014.80 1014.57 1014.30 1014.00 1013.67 1013.33 1012.98 1012.62 1012.28 1011.93 1011.60 1011.28 1010.97 1010.67 1010.39
1011.04 1011.26 1011.51 1011.78 1012.07 1012.34 1012.60 1012.84 1013.05 1013.25 1013.43 1013.61 1013.80 1013.99 1014.19 1014.39 1014.58 1014.75 1014.89 1015.00 1015.05 1015.04 1014.98 1014.87 1014.69 1014.48 1014.22 1013.93 1013.61 1013.27 1012.92 1012.55 1012.18 1011.79 1011.41 1011.02 1010.65 1010.30
1010.16 1010.41 1010.70 1011.01 1011.32 1011.62 1011.91 1012.16 1012.40 1012.62 1012.84 1013.06 1013.28 1013.52 1013.77 1014.03 1014.28 1014.51 1014.71 1014.87 1014.98 1015.03 1015.02 1014.96 1014.84 1014.68 1014.48 1014.23 1013.96 1013.65 1013.32 1012.95 1012.56 1012.14 1011.71 1011.27 1010.83 1010.41
1009.33 1009.63 1009.96 1010.30 1010.63 1010.95 1011.25 1011.52 1011.78 1012.03 1012.29 1012.55 1012.83 1013.13 1013.44 1013.76 1014.07 1014.35 1014.60 1014.81 1014.96 1015.05 1015.08 1015.06 1014.99 1014.87 1014.72 1014.54 1014.31 1014.05 1013.75 1013.41 1013.02 1012.59 1012.14 1011.66 1011.17 1010.69
1008.57 1008.92 1009.28 1009.65 1009.99 1010.32 1010.63 1010.91 1011.19 1011.48 1011.77 1012.09 1012.44 1012.80 1013.18 1013.56 1013.93 1014.26 1014.55 1014.79 1014.96 1015.07 1015.13 1015.14 1015.11 1015.03 1014.93 1014.80 1014.63 1014.42 1014.16 1013.85 1013.49 1013.08 1012.62 1012.13 1011.62 1011.11
1007.87 1008.27 1008.66 1009.03 1009.39 1009.71 1010.02 1010.31 1010.61 1010.93 1011.27 1011.65 1012.06 1012.50 1012.96 1013.40 1013.83 1014.21 1014.53 1014.79 1014.98 1015.11 1015.18 1015.20 1015.19 1015.15 1015.09 1015.00 1014.88 1014.72 1014.51 1014.24 1013.92 1013.53 1013.09 1012.61 1012.10 1011.59
1007.21 1007.63 1008.04 1008.42 1008.77 1009.08 1009.38 1009.68 1010.00 1010.35 1010.75 1011.19 1011.68 1012.20 1012.73 1013.24 1013.73 1014.16 1014.52 1014.80 1015.00 1015.14 1015.21 1015.25 1015.25 1015.23 1015.20 1015.14 1015.06 1014.94 1014.77 1014.55 1014.25 1013.90 1013.49 1013.03 1012.54 1012.04
1006.55 1006.99 1007.39 1007.76 1008.09 1008.39 1008.68 1008.99 1009.33 1009.72 1010.17 1010.68 1011.25 1011.85 1012.46 1013.05 1013.60 1014.08 1014.48 1014.79 1015.01 1015.16 1015.24 1015.28 1015.30 1015.29 1015.27 1015.24 1015.18 1015.09 1014.95 1014.75 1014.48 1014.16 1013.77 1013.34 1012.88 1012.41
1005.86 1006.29 1006.67 1007.02 1007.33 1007.61 1007.90 1008.21 1008.58 1009.01 1009.52 1010.11 1010.75 1011.44 1012.13 1012.80 1013.41 1013.95 1014.39 1014.74 1014.99 1015.15 1015.25 1015.31 1015.33 1015.34 1015.33 1015.31 1015.26 1015.17 1015.04 1014.85 1014.60 1014.29 1013.93 1013.52 1013.09 1012.64
1005.11 1005.51 1005.86 1006.18 1006.47 1006.74 1007.03 1007.36 1007.76 1008.24 1008.82 1009.47 1010.20 1010.96 1011.73 1012.47 1013.15 1013.74 1014.24 1014.62 1014.91 1015.10 1015.23 1015.30 1015.35 1015.37 1015.37 1015.35 1015.30 1015.22 1015.08 1014.89 1014.63 1014.32 1013.96 1013.56 1013.14 1012.72
1004.30 1004.65 1004.96 1005.25 1005.52 1005.80 1006.10 1006.46 1006.90 1007.44 1008.07 1008.80 1009.59 1010.43 1011.26 1012.07 1012.81 1013.45 1014.00 1014.43 1014.75 1014.99 1015.15 1015.26 1015.33 1015.37 1015.38 1015.37 1015.32 1015.22 1015.07 1014.86 1014.59 1014.26 1013.89 1013.48 1013.06 1012.65
1003.42 1003.72 1004.00 1004.26 1004.53 1004.82 1005.15 1005.55 1006.05 1006.64 1007.34 1008.13 1008.98 1009.87 1010.76 1011.61 1012.39 1013.08 1013.67 1014.15 1014.52 1014.80 1015.01 1015.16 1015.26 1015.33 1015.36 1015.36 1015.31 1015.20 1015.03 1014.80 1014.50 1014.14 1013.74 1013.32 1012.88 1012.46
Thickness
5662 5663 5664 5666 5669 5671 5673 5674 5673 5671 5673 5680 5685 5691 5695 5699 5703 5706 5709 5711 5713 5715 5717 5718 5720 5721 5722 5723 5723 5724 5725 5726 5727 5727 5727 5727 5728 5728
5662 5663 5664 5665 5667 5669 5671 5672 5673 5673 5671 5676 5680 5686 5690 5694 5697 5700 5703 5705 5708 5710 5711 5713 5715 5716 5717 5718 5719 5719 5720 5721 5722 5722 5723 5723 5724 5724
5663 5663 5664 5665 5665 5667 5668 5670 5671 5672 5670 5673 5677 5681 5685 5688 5692 5695 5697 5699 5702 5704 5706 5707 5709 5710 5711 5712 5713 5714 5715 5716 5716 5717 5718 5719 5719 5720
5663 5663 5663 5664 5664 5664 5665 5667 5668 5670 5670 5670 5673 5675 5679 5682 5685 5688 5691 5693 5695 5698 5700 5701 5703 5704 5705 5706 5707 5708 5709 5710 5711 5712 5713 5714 5714 5715
5663 5663 5663 5663 5662 5663 5664 5664 5666 5667 5668 5668 5668 5670 5673 5676 5679 5681 5684 5686 5689 5691 5693 5695 5696 5698 5699 5700 5701 5702 5703 5703 5705 5706 5706 5707 5708 5709
5663 5663 5663 5662 5662 5662 5662 5663 5663 5664 5664 5664 5665 5665 5667 5670 5672 5673 5675 5677 5680 5684 5685 5688 5689 5691 5692 5693 5694 5695 5696 5697 5698 5699 5700 5701 5702 5703
5663 5663 5663 5663 5663 5662 5662 5661 5661 5660 5660 5660 5660 5661 5662 5664 5665 5667 5668 5669 5672 5675 5677 5679 5682 5683 5685 5686 5687 5688 5688 5689 5690 5691 5692 5694 5695 5696
5663 5662 5662 5663 5663 5663 5663 5662 5661 5659 5658 5657 5657 5657 5658 5660 5661 5661 5661 5662 5664 5667 5669 5671 5673 5675 5676 5678 5679 5680 5681 5682 5683 5684 5685 5686 5687 5688
5663 5662 5662 5663 5662 5661 5661 5661 5660 5660 5659 5657 5656 5656 5656 5657 5657 5657 5657 5657 5658 5661 5662 5663 5665 5666 5669 5670 5671 5672 5673 5673 5674 5676 5677 5678 5679 5680
5663 5662 5660 5660 5660 5659 5658 5657 5656 5656 5657 5656 5656 5656 5656 5656 5655 5654 5654 5653 5653 5654 5655 5655 5657 5659 5662 5662 5663 5664 5665 5665 5666 5667 5668 5670 5671 5672
5662 5661 5660 5659 5659 5658 5655 5654 5653 5653 5654 5655 5654 5654 5653 5653 5652 5650 5649 5648 5648 5648 5649 5649 5650 5651 5652 5654 5655 5655 5656 5657 5657 5658 5659 5661 5662 5663
5660 5659 5660 5658 5658 5657 5654 5652 5650 5650 5650 5650 5649 5649 5649 5648 5648 5647 5646 5644 5643 5642 5643 5642 5643 5643 5644 5645 5646 5646 5647 5648 5648 5649 5650 5651 5652 5653
5659 5658 5658 5658 5657 5655 5653 5651 5650 5649 5647 5645 5644 5643 5643 5642 5642 5641 5641 5640 5638 5637 5637 5636 5636 5636 5635 5635 5636 5637 5637 5637 5638 5638 5639 5641 5642 5643
5659 5658 5657 5656 5655 5653 5651 5649 5648 5646 5642 5640 5639 5637 5637 5636 5636 5635 5635 5634 5633 5632 5630 5630 5629 5628 5628 5627 5627 5627 5627 5627 5627 5627 5628 5629 5630 5631
5659 5658 5655 5654 5652 5649 5648 5646 5644 5640 5638 5636 5634 5633 5632 5631 5630 5629 5627 5626 5625 5624 5623 5623 5622 5621 5620 5619 5618 5617 5617 5616 5615 5615 5616 5617 5618 5619
5654 5652 5651 5648 5646 5644 5643 5641 5639 5637 5635 5633 5631 5628 5626 5624 5623 5622 5620 5618 5617 5615 5614 5613 5613 5612 5611 5610 5608 5607 5605 5604 5604 5604 5604 5605 5605 5606
5648 5643 5641 5639 5637 5635 5634 5634 5633 5631 5629 5627 5625 5622 5620 5618 5616 5614 5612 5610 5607 5605 5603 5603 5603 5602 5601 5600 5598 5596 5595 5593 5592 5592 5593 5593 5594 5594
5641 5639 5637 5635 5634 5632 5630 5627 5626 5625 5624 5622 5619 5617 5614 5612 5609 5606 5603 5601 5598 5595 5593 5591 5591 5591 5591 5588 5587 5585 5583 5582 5581 5581 5581 5582 5583 5583
5636 5636 5634 5633 5630 5628 5626 5624 5621 5620 5618 5616 5613 5610 5608 5605 5601 5598 5595 5592 5588 5586 5583 5581 5580 5579 5578 5577 5575 5574 5573 5572 5571 5570 5570 5569 5571 5572
5631 5631 5630 5628 5626 5624 5621 5619 5616 5612 5610 5608 5606 5603 5600 5597 5593 5590 5587 5584 5580 5576 5573 5571 5569 5568 5566 5565 5563 5562 5561 5560 5560 5559 5559 5559 5560 5562
5626 5625 5624 5623 5621 5619 5617 5614 5611 5607 5604 5602 5599 5596 5592 5589 5585 5581 5578 5576 5571 5568 5564 5562 5560 5558 5556 5554 5552 5552 5551 5550 5549 5547 5548 5548 5550 5551
5621 5620 5618 5617 5615 5613 5610 5607 5604 5600 5597 5594 5591 5588 5584 5581 5577 5573 5569 5566 5562 5559 5556 5552 5550 5549 5547 5545 5543 5542 5541 5540 5539 5538 5537 5537 5536 5538
5613 5612 5611 5610 5608 5606 5603 5600 5597 5594 5591 5587 5584 5580 5576 5572 5568 5564 5561 5557 5553 5550 5546 5543 5540 5538 5536 5534 5533 5532 5531 5530 5529 5528 5528 5527 5527 5527